Temperature
23 21 21 21 21 22 23 22 21 21 21 20 19 18 18 17 17 17 17 17 18 18 18 18 18 18 18 18 18 18 18 18 18 17 17 17 17 17 16 16 16 15 15 15
21 21 23 23 23 22 22 21 21 21 20 20 18 18 18 17 17 17 17 17 18 18 18 18 18 18 18 18 18 18 18 18 18 17 17 17 17 16 16 16 15 15 15 15
22 23 24 24 24 23 22 21 21 21 20 19 19 19 18 17 17 17 18 18 18 18 18 18 18 18 18 18 18 18 18 18 18 17 17 17 16 16 16 16 15 15 15 15
22 23 24 24 24 23 22 22 22 21 19 18 18 18 18 17 17 17 17 18 18 18 18 18 18 18 18 18 18 18 18 18 17 17 17 17 17 17 16 16 15 15 15 14
23 24 25 24 24 24 22 21 20 19 18 18 18 18 17 17 17 17 17 18 18 18 19 19 19 19 18 18 18 18 18 18 17 17 17 17 17 16 16 15 15 15 15 14
23 24 25 24 23 23 21 20 18 16 16 18 18 18 18 16 17 18 18 18 19 19 19 19 19 19 18 18 18 18 18 18 18 17 17 17 16 16 16 16 15 15 14 14
23 24 24 24 22 22 21 19 18 19 17 18 18 17 17 18 18 18 18 19 19 19 19 19 19 19 19 19 19 18 18 18 18 17 17 17 16 16 16 16 15 15 14 14
22 22 23 23 23 21 20 20 19 20 19 18 18 18 18 19 19 20 20 20 20 20 20 20 20 20 19 19 19 19 19 18 18 18 17 17 16 16 16 15 15 15 14 14
21 22 24 24 23 22 20 19 19 17 18 18 18 18 18 19 19 19 19 20 20 20 20 20 20 20 20 20 20 19 19 19 18 18 17 17 16 16 16 15 15 14 14 14
21 22 23 23 23 22 21 18 16 17 18 19 19 19 19 20 20 19 18 19 20 21 21 21 21 21 21 20 20 20 19 19 19 18 18 17 16 16 15 15 15 14 14 14
21 21 22 22 22 22 20 19 17 15 16 18 19 19 19 19 19 19 19 21 22 22 22 22 22 22 21 21 20 20 20 19 19 18 18 17 16 16 15 15 15 14 14 14
20 19 20 21 21 21 21 19 17 18 18 16 17 18 20 19 19 19 20 22 23 23 23 22 22 22 22 21 21 21 20 20 19 19 18 17 17 16 16 15 15 14 14 14
19 19 20 21 20 21 21 20 17 16 15 15 17 19 20 19 19 20 21 22 23 23 23 23 22 22 22 22 22 21 21 20 19 19 18 17 17 16 16 15 15 14 14 14
19 18 19 20 20 20 21 20 18 17 16 16 17 19 20 19 18 19 21 22 23 23 23 23 23 23 23 22 22 22 21 20 20 19 18 18 17 17 16 15 15 15 14 14
19 19 19 19 20 20 21 21 19 18 18 18 19 18 19 18 18 19 20 21 22 23 23 23 23 23 23 22 22 22 21 21 20 19 19 18 17 17 16 16 15 15 15 15
17 19 19 20 21 20 20 20 20 19 19 18 19 19 18 17 18 18 19 20 21 22 23 23 23 23 23 22 22 22 21 21 20 19 19 18 18 17 17 16 16 15 15 15
16 17 18 19 19 20 20 20 19 19 19 18 19 19 17 16 16 17 18 19 20 22 23 23 23 23 23 23 22 22 22 21 20 20 19 19 18 17 17 17 16 16 15 15
15 16 15 17 19 20 19 19 19 19 18 17 17 16 16 16 16 17 18 19 20 21 22 22 23 23 23 22 22 21 21 21 20 20 19 19 18 18 17 17 16 16 16 15
14 15 15 15 17 18 19 18 18 18 18 16 16 16 16 17 17 17 17 18 20 21 21 22 22 22 22 22 21 21 20 20 20 19 19 19 18 18 17 17 17 16 16 15
14 14 15 15 18 18 19 18 17 17 17 17 15 15 16 17 16 15 16 18 19 20 21 21 22 21 21 21 21 21 20 20 20 19 19 19 18 18 17 17 16 16 15 15
15 14 15 15 16 17 17 17 17 17 17 16 15 15 15 14 14 15 16 18 18 19 20 20 20 20 20 20 20 20 19 19 19 19 18 18 18 17 17 16 16 15 15 15
15 15 14 14 15 17 17 16 16 16 15 15 15 15 14 14 14 15 16 17 18 18 19 19 20 19 19 19 19 19 19 18 18 18 17 17 17 17 16 16 16 15 15 14
14 14 14 14 15 15 15 16 16 16 15 15 15 15 15 15 15 15 16 16 17 17 18 18 18 18 18 18 18 18 17 17 17 17 17 16 16 16 15 15 15 15 14 14
14 13 13 13 14 15 15 15 16 16 16 15 15 15 15 15 15 15 15 15 16 16 16 16 17 17 16 16 16 16 16 16 16 16 16 15 15 15 14 14 14 14 13 13
14 13 13 14 14 14 15 15 16 16 16 15 15 15 15 15 15 15 15 15 15 15 15 15 15 15 15 15 15 15 15 15 15 15 14 14 14 14 13 13 13 13 13 12
12 13 13 14 15 13 15 15 16 16 15 15 15 15 15 15 14 14 14 14 14 14 14 14 14 13 13 13 14 14 13 13 13 13 13 13 12 12 12 12 12 12 12 11
Wind_Speed
1 2 6 9 9 8 5 5 6 4 1 3 3 3 3 4 4 5 5 5 6 7 6 7 8 8 8 7 7 8 8 7 7 4 4 4 3 2 2 3 4 5 6 6
3 6 11 6 5 6 5 5 4 2 1 2 0 3 2 4 5 5 6 7 8 7 6 6 7 7 8 8 8 8 8 8 7 5 4 3 4 3 2 2 3 4 5 5
8 9 3 2 2 2 4 5 5 4 2 4 2 4 2 2 2 3 4 5 7 9 9 9 8 8 8 9 10 10 8 8 7 6 5 5 4 4 2 1 1 1 3 4
8 7 4 3 4 4 5 4 4 4 3 2 2 3 5 3 3 4 6 5 7 7 8 9 10 9 9 9 8 8 8 7 7 7 7 7 5 4 4 3 2 1 2 3
7 4 3 4 4 4 3 4 5 4 4 2 2 1 7 1 4 7 7 8 8 8 9 10 10 10 9 8 8 7 7 7 6 7 8 7 5 3 3 2 2 1 1 1
8 4 4 4 2 4 6 6 7 6 5 2 2 1 6 5 7 6 7 9 10 10 10 9 8 8 7 7 7 8 8 7 6 7 7 8 8 6 5 4 3 2 1 0
6 5 3 4 4 3 4 6 4 5 4 5 2 2 8 7 7 9 10 11 10 10 10 10 10 10 10 10 9 9 9 8 7 8 7 8 8 8 7 6 5 4 2 2
4 7 4 5 7 7 5 7 6 4 4 5 2 5 7 5 5 7 8 9 9 10 10 11 12 12 12 12 11 11 11 9 8 8 8 7 7 6 5 5 5 5 4 3
8 7 3 3 3 9 7 4 5 6 2 2 5 7 8 2 2 5 7 9 10 11 12 12 12 12 12 12 12 12 12 10 10 9 8 7 7 7 6 5 5 4 3 3
8 5 4 2 3 3 5 9 6 5 4 3 6 5 5 6 6 6 8 10 11 11 12 12 12 13 12 12 11 10 11 11 10 10 9 8 8 7 6 6 6 5 5 4
4 5 3 1 4 6 5 5 5 5 5 6 3 7 7 10 10 10 11 11 12 13 13 13 13 12 11 10 10 10 11 10 9 10 9 8 8 7 6 6 6 6 5 5
4 4 3 5 2 1 4 7 8 5 5 5 4 8 7 8 9 10 11 11 10 11 12 11 11 10 10 11 11 11 11 11 11 11 9 9 8 7 7 7 7 6 6 6
5 5 1 5 4 1 2 4 5 6 5 6 5 8 5 2 5 8 9 10 9 10 10 9 9 10 11 11 11 12 12 12 11 10 10 9 9 9 9 8 7 7 7 6
5 4 6 7 7 4 3 4 6 6 5 6 8 9 9 5 6 7 8 9 9 9 10 10 11 11 12 12 12 12 12 11 11 11 11 11 11 11 10 9 8 8 7 7
5 3 5 6 5 3 4 5 7 8 8 9 9 8 10 7 7 8 7 7 7 7 9 11 12 11 11 11 11 11 11 11 11 11 12 12 11 9 9 8 8 8 8 8
3 4 2 3 2 3 4 5 6 7 6 7 6 8 6 6 3 2 3 5 7 8 9 10 11 11 12 13 12 12 12 11 11 12 13 11 9 9 10 10 9 8 8 7
3 5 3 3 3 1 5 6 6 5 5 6 7 7 4 4 3 2 2 3 5 7 7 8 10 11 12 13 13 14 13 11 11 12 11 10 11 11 11 10 9 9 9 8
6 5 4 1 1 5 6 2 2 3 3 3 5 6 5 4 1 3 3 1 2 2 3 5 6 7 7 8 9 8 8 10 12 11 10 10 10 10 9 8 9 9 7 7
4 6 4 3 2 6 4 1 1 2 4 3 4 5 4 3 2 5 7 5 2 1 1 2 4 4 4 6 7 8 8 8 9 10 10 10 11 10 10 10 10 8 7 8
5 5 5 4 3 6 5 1 1 3 5 2 1 4 4 2 2 3 8 7 5 5 4 3 3 3 3 3 6 7 7 8 10 10 9 8 9 10 10 10 9 7 7 8
3 4 4 4 4 7 4 1 3 4 5 2 1 3 3 3 1 2 6 7 7 7 7 6 7 5 3 4 6 6 5 7 7 5 5 5 6 7 7 7 6 6 6 7
6 5 4 5 3 7 2 2 4 4 0 2 2 3 5 5 4 5 7 8 9 10 10 9 8 7 6 4 5 4 3 4 2 4 4 5 5 6 5 6 5 5 5 6
6 7 6 8 7 4 1 2 0 2 2 1 2 3 5 7 7 7 8 8 9 10 10 9 9 8 8 6 4 2 1 1 2 3 3 3 4 4 4 4 5 4 4 5
3 3 4 3 4 3 2 2 2 3 3 4 5 5 7 8 7 8 8 8 9 9 9 9 10 10 8 7 5 3 2 1 2 2 2 2 2 2 3 3 4 4 5 6
4 5 3 3 4 1 1 2 5 6 7 9 9 8 8 10 9 8 8 8 8 8 8 8 8 8 7 6 6 6 4 3 3 2 1 1 0 1 2 2 4 5 6 6
3 5 6 6 5 4 2 3 6 8 8 9 10 10 9 9 9 8 8 6 7 7 7 7 7 6 5 6 6 6 5 4 4 3 3 2 1 1 2 3 4 6 9 11
Wind_Direction
47 52 249 237 210 220 239 247 263 267 181 154 207 248 230 204 210 213 202 196 194 181 169 163 163 158 152 152 154 156 154 153 146 140 137 132 137 131 123 147 158 152 146 142
3 265 248 250 231 215 230 251 254 283 95 118 211 284 256 205 214 213 205 203 198 174 164 168 161 157 160 164 165 165 165 162 162 155 142 133 127 124 122 130 148 161 160 157
220 252 282 269 271 232 235 210 219 200 84 50 27 328 275 243 226 224 225 207 185 180 177 175 169 165 165 171 173 176 172 166 163 147 121 102 85 76 84 112 160 177 179 178
236 261 263 271 262 195 248 240 172 138 114 325 29 292 280 243 248 232 223 202 191 187 180 178 176 175 178 177 172 170 169 164 160 152 150 148 153 164 184 175 170 150 163 175
246 245 262 269 256 183 180 72 88 95 109 27 10 210 286 274 244 239 220 203 196 190 187 186 184 183 180 174 171 169 164 164 162 160 158 151 150 156 143 137 145 143 119 160
248 246 226 225 50 112 125 76 61 56 67 339 274 192 281 234 217 218 210 200 196 190 189 192 186 174 175 172 170 166 167 173 166 161 161 163 161 157 152 162 169 172 166 187
285 275 223 153 110 76 94 91 26 353 2 267 254 228 254 247 220 202 198 199 194 189 187 185 182 182 184 183 180 173 175 179 173 168 170 173 169 166 173 176 181 177 180 196
231 277 240 191 176 170 175 146 160 211 242 283 302 249 256 258 230 203 196 192 184 186 190 191 192 192 192 190 184 180 184 184 178 176 180 175 168 169 177 179 177 184 192 199
194 242 269 210 182 141 141 169 156 130 139 304 288 285 301 256 221 198 194 191 194 195 195 199 199 197 195 192 190 188 187 186 184 183 177 174 174 177 180 177 174 180 190 196
172 222 269 273 97 56 136 141 108 121 147 262 294 283 254 243 220 203 198 202 204 198 198 203 203 202 200 196 191 185 187 191 186 181 181 185 184 184 178 172 183 191 196 193
152 175 277 356 183 174 123 114 112 119 150 163 250 274 228 213 204 201 207 207 204 200 201 203 205 203 196 190 185 186 188 185 183 185 184 180 184 183 179 186 196 196 197 197
149 137 241 260 263 156 167 166 149 155 203 177 189 266 266 219 211 201 209 211 208 205 204 201 200 194 188 189 188 189 189 189 191 186 182 185 183 179 186 198 202 198 204 207
144 124 73 342 346 11 161 157 148 126 121 157 179 262 303 267 235 220 214 214 212 207 204 199 194 193 195 194 191 191 191 193 186 179 180 182 183 187 197 203 203 201 205 210
123 133 172 203 225 214 215 176 152 136 156 198 220 250 292 293 262 249 233 222 213 207 201 199 201 201 198 195 191 190 191 187 179 178 181 188 194 197 201 202 202 205 206 209
121 174 221 238 235 199 223 217 183 189 194 197 231 233 259 272 262 251 235 224 217 214 207 205 205 204 197 193 191 189 188 183 179 179 188 199 199 198 198 201 206 208 209 215
115 164 178 281 265 222 246 251 218 213 211 221 249 260 263 287 289 268 222 200 215 223 219 212 207 200 198 196 193 188 189 184 177 186 197 198 193 196 202 206 207 208 213 218
125 139 141 261 315 3 266 247 212 209 208 197 224 247 310 314 319 294 244 200 213 225 220 213 211 207 204 199 191 192 191 176 181 194 199 195 194 201 207 207 205 211 215 215
136 125 133 182 25 242 252 299 188 186 223 234 255 271 278 258 247 40 24 228 222 240 234 227 218 213 207 195 188 184 172 175 186 195 200 197 196 205 207 204 211 216 214 216
133 133 118 122 212 278 291 245 129 169 264 233 260 294 304 258 126 35 12 2 354 319 223 208 206 202 183 179 173 159 167 173 185 200 204 200 197 202 203 208 216 215 213 222
64 95 115 132 183 244 253 218 143 119 283 267 248 304 319 8 73 346 345 349 8 27 34 50 77 98 121 142 140 154 172 176 197 205 205 199 196 200 206 213 215 212 214 227
87 77 125 162 218 262 264 258 118 159 254 345 40 359 27 51 94 310 343 6 16 32 37 50 72 77 74 102 129 153 167 202 212 191 180 184 191 200 207 208 209 210 215 227
168 152 171 154 199 259 286 113 172 211 299 66 65 62 77 78 51 30 27 29 31 36 39 46 61 60 55 79 117 146 199 221 175 169 183 196 199 206 210 205 214 212 215 231
189 186 184 186 209 246 261 183 152 140 123 105 105 94 93 78 58 45 41 39 40 44 47 50 57 56 49 52 79 110 322 111 162 168 190 205 204 207 211 207 219 220 219 233
236 154 155 231 267 259 237 155 110 111 115 105 100 93 95 91 77 60 49 43 42 42 44 51 59 56 42 35 43 38 17 40 126 155 205 207 204 222 221 220 220 223 231 240
217 166 174 241 262 322 346 144 129 109 100 93 87 87 91 90 77 69 58 44 42 46 45 50 58 57 44 37 34 30 30 55 74 65 48 33 327 241 249 247 240 238 239 237
211 185 181 225 225 169 174 136 122 109 102 104 100 84 75 85 87 77 65 49 47 47 47 51 52 53 43 41 36 24 24 51 69 56 40 30 7 344 313 297 299 264 255 267
Height
1499 1504 1506 1501 1500 1499 1500 1505 1507 1502 1498 1501 1503 1503 1501 1501 1501 1502 1503 1504 1506 1508 1512 1515 1518 1521 1525 1528 1531 1535 1538 1540 1542 1545 1547 1549 1550 1552 1553 1555 1556 1557 1557 1557
1504 1504 1493 1491 1492 1496 1499 1505 1505 1501 1498 1501 1504 1504 1500 1500 1500 1501 1501 1503 1505 1507 1510 1514 1517 1520 1523 1527 1531 1534 1537 1539 1541 1544 1546 1548 1550 1552 1553 1554 1555 1556 1557 1557
1503 1494 1488 1489 1491 1496 1498 1501 1501 1502 1501 1502 1505 1506 1502 1500 1499 1500 1500 1501 1503 1506 1508 1511 1515 1519 1523 1526 1529 1533 1536 1538 1541 1543 1546 1548 1549 1551 1552 1553 1554 1555 1556 1556
1497 1489 1487 1488 1490 1491 1499 1491 1494 1499 1508 1514 1511 1520 1505 1501 1500 1499 1499 1500 1502 1505 1508 1510 1514 1517 1521 1525 1529 1532 1535 1538 1540 1543 1545 1546 1548 1549 1551 1552 1553 1554 1555 1555
1493 1487 1486 1489 1487 1487 1492 1491 1496 1502 1509 1516 1514 1519 1512 1502 1501 1498 1497 1498 1500 1503 1506 1509 1512 1516 1520 1524 1528 1532 1535 1537 1540 1542 1544 1545 1547 1548 1550 1551 1552 1552 1553 1554
1486 1482 1483 1483 1483 1485 1490 1496 1503 1511 1517 1525 1515 1520 1514 1503 1496 1493 1493 1496 1498 1502 1505 1509 1512 1516 1520 1523 1527 1530 1533 1536 1538 1540 1542 1544 1546 1547 1548 1549 1550 1551 1551 1552
1489 1482 1479 1479 1486 1489 1492 1506 1524 1524 1532 1527 1515 1517 1511 1491 1487 1487 1489 1492 1495 1499 1503 1507 1510 1514 1518 1521 1525 1528 1531 1534 1536 1539 1541 1543 1544 1545 1546 1547 1548 1548 1549 1550
1498 1497 1480 1477 1481 1489 1493 1501 1521 1529 1532 1526 1515 1516 1498 1484 1482 1484 1486 1489 1493 1496 1500 1504 1507 1512 1515 1519 1523 1526 1529 1532 1535 1537 1539 1541 1542 1544 1544 1545 1546 1546 1547 1548
1495 1493 1476 1474 1474 1479 1493 1499 1501 1517 1522 1526 1519 1507 1491 1481 1481 1482 1484 1487 1490 1493 1497 1501 1505 1509 1513 1516 1520 1523 1526 1529 1532 1534 1537 1539 1540 1541 1542 1543 1543 1544 1545 1546
1481 1489 1479 1475 1475 1478 1482 1493 1507 1517 1527 1529 1517 1510 1502 1485 1481 1480 1482 1483 1486 1490 1494 1498 1502 1506 1510 1513 1517 1521 1524 1527 1529 1532 1534 1536 1538 1539 1540 1541 1541 1542 1543 1543
1476 1487 1484 1479 1480 1483 1488 1495 1503 1514 1517 1527 1526 1512 1480 1477 1475 1476 1477 1479 1482 1486 1489 1493 1498 1502 1506 1510 1514 1517 1520 1523 1526 1529 1531 1534 1535 1537 1537 1538 1539 1540 1540 1541
1476 1486 1492 1484 1477 1476 1479 1486 1498 1508 1513 1519 1521 1508 1469 1469 1469 1471 1473 1475 1479 1482 1486 1490 1494 1499 1503 1506 1510 1513 1516 1519 1522 1525 1528 1530 1532 1534 1535 1536 1537 1537 1538 1539
1475 1486 1497 1494 1490 1482 1481 1484 1490 1499 1510 1519 1519 1501 1468 1467 1468 1469 1470 1472 1475 1479 1483 1486 1490 1494 1498 1502 1505 1509 1512 1516 1519 1522 1524 1527 1528 1530 1531 1533 1534 1535 1535 1536
1470 1482 1491 1497 1491 1483 1482 1482 1488 1495 1507 1512 1505 1490 1473 1469 1469 1467 1468 1469 1472 1475 1478 1482 1485 1489 1493 1497 1501 1504 1508 1512 1515 1518 1520 1522 1524 1526 1528 1530 1531 1532 1532 1533
1470 1480 1480 1479 1476 1477 1478 1478 1482 1488 1489 1495 1487 1484 1473 1469 1467 1465 1465 1467 1469 1471 1474 1477 1480 1483 1487 1491 1496 1499 1504 1507 1511 1513 1515 1518 1521 1523 1525 1526 1527 1528 1529 1530
1471 1477 1479 1478 1474 1475 1477 1475 1476 1478 1479 1481 1479 1477 1467 1466 1464 1463 1462 1464 1466 1468 1470 1472 1475 1478 1482 1486 1490 1494 1498 1503 1506 1509 1511 1514 1517 1519 1521 1522 1523 1524 1525 1526
1475 1479 1484 1487 1479 1477 1483 1473 1473 1473 1472 1474 1476 1470 1466 1465 1463 1462 1461 1462 1463 1465 1466 1468 1471 1474 1477 1481 1485 1489 1493 1498 1501 1505 1508 1510 1512 1514 1516 1518 1519 1520 1521 1522
1476 1481 1487 1490 1485 1492 1478 1467 1467 1469 1469 1470 1469 1467 1465 1464 1463 1462 1461 1461 1462 1463 1464 1466 1468 1471 1474 1478 1482 1486 1490 1494 1497 1500 1503 1506 1508 1510 1512 1514 1515 1516 1517 1517
1471 1479 1488 1494 1493 1487 1474 1468 1469 1471 1470 1467 1467 1465 1464 1463 1462 1463 1462 1462 1461 1462 1463 1465 1467 1470 1472 1475 1479 1482 1486 1490 1493 1496 1498 1501 1503 1505 1507 1509 1510 1511 1512 1512
1474 1476 1486 1492 1492 1492 1475 1467 1466 1470 1473 1466 1466 1465 1464 1463 1466 1467 1464 1462 1461 1462 1462 1464 1466 1468 1471 1474 1477 1480 1483 1486 1488 1491 1494 1497 1499 1501 1502 1504 1505 1506 1506 1507
1479 1483 1486 1491 1491 1482 1468 1465 1466 1478 1474 1467 1466 1466 1465 1466 1468 1468 1465 1463 1462 1462 1462 1463 1465 1467 1469 1472 1475 1477 1480 1482 1485 1488 1491 1493 1495 1496 1498 1499 1500 1500 1501 1501
1477 1483 1487 1491 1492 1484 1466 1465 1469 1470 1467 1467 1467 1467 1466 1467 1468 1467 1465 1464 1464 1463 1463 1464 1465 1467 1468 1471 1473 1475 1477 1480 1483 1485 1487 1489 1491 1492 1493 1494 1494 1495 1495 1494
1472 1472 1475 1477 1476 1467 1465 1465 1466 1466 1467 1468 1468 1468 1468 1468 1468 1468 1468 1467 1466 1465 1465 1466 1467 1468 1469 1471 1472 1474 1475 1478 1480 1481 1483 1485 1486 1487 1488 1488 1488 1489 1489 1488
1467 1467 1469 1470 1466 1463 1463 1464 1465 1466 1467 1468 1469 1469 1469 1469 1470 1470 1470 1469 1468 1468 1468 1468 1468 1469 1470 1471 1472 1473 1475 1476 1477 1478 1479 1480 1481 1481 1482 1482 1482 1482 1482 1482
1463 1465 1467 1467 1463 1462 1462 1463 1464 1466 1468 1469 1470 1471 1472 1471 1472 1473 1473 1472 1472 1471 1471 1472 1472 1472 1472 1473 1473 1473 1474 1475 1475 1475 1475 1476 1476 1476 1476 1476 1476 1476 1475 1475
1462 1463 1465 1464 1459 1461 1463 1464 1465 1467 1469 1471 1472 1473 1475 1475 1476 1476 1476 1476 1475 1475 1475 1475 1475 1474 1474 1474 1473 1473 1474 1473 1473 1472 1472 1472 1472 1472 1471 1471 1470 1470 1469 1468